Погода в Горки

Погода в Горки : погода сейчас, прогноз погоды и архив. Всё, что Вы хотите узнать о погоде в Горки!

Хотите узнать прогноз погоды в Горки? Тогда Вам сюда: Погода в Горки

Поиск расширенной информации на нашем сайте:

Полезная информация: Смотрите информацию подключение к рбт на сайте.

Другие новости

Новости СМИ2

Главная страница сайта

Новости сайта

02.10.2013

Напоминаем, что на нашем новом сайте вы можете получить высокодетализированные прогнозы погоды по пунктам России, СНГ и мира (включающие важные для авиации метеовеличины, такие как направление и скорость ветра, видимость, явления погоды, количество и форма облачности, нижняя и верхняя граница облачности), а также ознакомиться с разнообразными материалами по авиационной метеорологии и подборкой полезных ссылок на эту тему.

Сайт Метеоцентр.Азия посвящён разработке технологий оптимизации авиаметеорологического обслуживания, включая проектирование и перспективное создание нескольких автоматизированных авиаметеорологических систем:
- система выпуска высокодетальных прогностических карт явлений погоды для нижнего воздушного пространства по России и ближнему зарубежью;
- система верификации прогнозов TAF (выпускаемых синоптиками официальных АМСГ РФ и ближнего зарубежья) и AUTOTAF (выпускаемых сайтом Метеоцентр.Азия) - выявление ошибок, онлайн-сопоставление с фактической погодой METAR, автоматическое внесение коррективов в прогнозы при резком отклонении фактической погоды от прогноза, подсчёт оправдываемости прогнозов по элементам и в целом;
- система обработки, анализа и отображения авиаметеорологической информации для применения провайдерами метеорологической информации.

Рекомендуем: Капли для глаз япония японские глазные капли.

Погода в Горки - сегодня

Время (UTC), дата Ветер
(°,м/с) 
Видим.   Явления Облачность Т
(°С)
Тd
(°С)
f(%) Тe
(°С)
Pmin
(гПа)
dP
(гПа)
Po
(мм)
O2
(г/м3)
Тmin Tmax R s Состояние
почвы
12 19.02.17 230 (ЮЗ) 8-12{14}  14000 м    9/9 360 м 
[Frnb]
+1.2 -1.4 83 -3  1016.4  -1.3  743  298           
15 19.02.17 240 (ЮЗ) 8-12{15}  13000 м    10/10 570 м 
[Sc]
+1 -1.4 84 -3  1015.3  -1.1  743  298           
18 19.02.17 240 (ЮЗ) 9-13{15}  12000 м    10/10 570 м 
[Sc]
+1 -1.4 84 -3  1014.5  -0.8  742  298    +1.3    18   
21 19.02.17 230 (ЮЗ) 9-12{15}  11000 м    10/10 570 м 
[Sc]
+0.6 -1.4 86 -4  1013.8  -0.7  742  298           
00 20.02.17 230 (ЮЗ) 8-12{14}  10 км  {снег}  10/10 300 м 
[Frnb]
+0.5 -1.1 89 -4  1012.9  -0.9  741  298           
03 20.02.17 240 (ЮЗ) 7-10{13}  7000 м  дымка{снег}  10/10 330 м 
[Frnb]
+0.6 -0.9 90 -3  1011.7  -1.1  740  298      0.3  17   
06 20.02.17 230 (ЮЗ) 8-11{13}  6000 м  дымка{снег}  10/10 360 м 
[Frnb]
+0.8 -1 88 -3  1010.7  -1  739  297  +0.1    0.3  16  равномерный
мокрый или
старый снег
100% 
09 20.02.17 220 (ЮЗ) 8-12{13}  10 км    10/6 600 м средняя 
[Sc|Ac As]
+1.6 -1.1 82 -2  1009.2  -1.4  738  296           
12 20.02.17 230 (ЮЗ) 8-10{14}  11000 м  {ливн. осадки}  10/8 600 м средняя 
[Sc|Ac As]
+2.2 -0.5 82 -2  1007.2  -1.9  737  295           
18 20.02.17 230 (ЮЗ) 8-11{14}  8000 м  дымка  10/10 360 м 
[Frnb]
+1.7 -0.1 88 -2  1002.2  -2.9  733  294    +2.4  0.0  15   
21 20.02.17 220 (ЮЗ) 9-12{14}  6000 м  слаб. ливневой дождь  10/10 360 м 
[Frnb]
+1.6 +0 89 -3  998.2  -3.3  731  293           
00 21.02.17 210 (ЮЗ) 8-11{13}  2400 м  слаб. снег{ливн. осадки}  10/10 240 м 
[Frnb]
+0.6 +0 96 -4  994.7  -4.1  728  292           
03 21.02.17 210 (ЮЗ) 8-12{14}  3800 м  слаб. снег{дождь}  10/10 210 м 
[Frnb]
+0.5 +0 96 -4  992  -2.7  726  292      15   
06 21.02.17 220 (ЮЗ) 8-11{13}  4100 м  слаб. снег{дождь}  10/10 210 м 
[Frnb]
+0.5 -0.1 96 -4  989.5  -2.4  724  291  +0.3    15  равномерный
мокрый или
старый снег
100% 
09 21.02.17 220 (ЮЗ) 7-11{12}  3100 м  слаб. снег  10/10 210 м 
[Frnb]
+0.8 +0.2 96 -3  987.9  -1.5  723  290           
12 21.02.17 230 (ЮЗ) 6-10{11}  3600 м  слаб. дождь{снег}  10/10 240 м 
[Frnb]
+2.1 +1.7 97 -1  987.4  -0.4  722  288           
18 21.02.17 230 (ЮЗ) 3{11}  2500 м  слаб. дождь  10/10 210 м 
[Frnb]
+1.7 +1.4 98 990.1  1.3  724  290    +2.9  10   
21 21.02.17 250 (З) 8000 м  слаб. дождь  10/8 180 м средняя 
[Frnb|As op]
+1.4 +0.8 96 -1  990.4  0.3  725  290           
00 22.02.17 280 (З) 6000 м  слаб. дождь  10/8 210 м средняя 
[Frnb|As op]
+1.4 +0.9 96 -1  991.4  0.9  725  290           
03 22.02.17 320 (СЗ) 6{10}  4500 м  дымка{дождь}  10/10 210 м 
[Frnb]
+0.7 +0 95 -3  993.9  2.4  727  292      10   
06 22.02.17 340 (С) 10-13{13}  9000 м  слаб. снег{дождь}  10/10 210 м 
[Frnb]
-2 -3.5 89 -7  998.3  4.1  730  297  -2.1    10  равномерный
мокрый или
старый снег
100% 
09 22.02.17 330 (СЗ) 5{13}  20000 м  {снег}  10/10 360 м 
[Frnb]
-4.1 -6.2 85 -8  1000.9  2.3  732  300           
12 22.02.17 330 (СЗ) 5{11}  18000 м  {снег}  10/10 570 м 
[Sc]
-4.6 -7.7 79 -8  1001.4  0.4  732  301           
18 22.02.17 150 (ЮВ) 16000 м    10/6 600 м средняя 
[Sc|Ac As]
-3.3 -5.1 87 -7  997.1  -2.6  729  298    -1.9  0.0  10   
21 22.02.17 150 (ЮВ) 1900 м  снег  10/10 150 м 
[Frnb]
-1.9 -2.6 95 -6  992.7  -4.2  726  295           
Время (UTC), дата Ветер
(°,м/с) 
Видим.   Явления Облачность Т
(°С)
Тd
(°С)
f(%) Тe
(°С)
Pmin
(гПа)
dP
(гПа)
Po
(мм)
O2
(г/м3)
Тmin Tmax R s Состояние
почвы

Для получения пояснительной информации подведите курсор к названию столбца.

ПОГОДА в Горки - архив

Всё, что Вы хотите узнать о погоде в Горки - удобно и подробно!

Выберите нужную дату (начиная с 1 января 2015* года) и нажмите кнопку "Найти".
Будут отображены архивные сводки погоды по пункту Горки, начиная с указанной даты.


Отображать данные в формате CSV (для использования в таблицах Excel)


Внимание! Наш архив погоды предназначен исключительно для личного некоммерческого использования в познавательных целях. Если Вам необходимы официальные справки о состоянии погоды (для производственных, юридических, коммерческих и т.п. целей), обращайтесь в органы Росгидромета.

*Примечание: данная дата относится к архиву по метеостанциям СССР (Россия, СНГ, Балтия).
Архив по метеостанциям Зарубежной Европы и Азии (кроме Китая) хранится 10 дней, по другим регионам земного шара (Китай, Африка, Америка, Австралия, Океания) - 1 день.

Горки - район местоположения метеостанции


Название, широта, долгота, высота метеостанции:
Горки 54.3°ш. 30.9°д. 205 м над ур. моря [Беларусь]

Дополнительная информация

В oтличие oт бoльшинства пoгoдных сайтoв мы публикуем пoдрoбную метеoинфoрмацию в детальнoм прoфессиoнальнoм фoрмате.

Характеристики температуры и влажнoсти вoздуха измеряются на высoте 2 м в тени вдали oт зданий и деревьев.
Скoрoсть ветра измеряется на высoте 10 м (на урoвне рoста челoвека скoрoсть ветра ниже в 1.5-2 раза). Если метеoстанция нахoдится в гoрoде или в лесу, тo скoрoсть ветра занижена на 2-4 м/с пo сравнению с oткрытым местoм. Скoрoсть ветра над акватoриями крупных рек и oзёр, а также на вершинах хoлмoв на 2-5 м/с выше, чем в oбычных услoвиях.
Атмoсфернoе давление в разных тoчках местнoсти мoжет значительнo oтличаться oт давления на метеoстанции, в зависимoсти oт услoвий рельефа (при пoдъёме на 10 м давление пoнижается примернo на 1 мм рт.ст.).